Weather History for Goshen, IN

Change the Weather History Date:

Tuesday, February 4, 2014

  Actual Average Record
Temperature  
Mean Temperature 12 °F -  
Max Temperature 23 °F 32 °F 54 °F (1962)
Min Temperature 1 °F 17 °F -9 °F (1985)
Degree Days  
Heating Degree Days 53    
Moisture  
Dew Point 9 °F    
Average Humidity 78    
Maximum Humidity 92    
Minimum Humidity 58    
Precipitation  
Precipitation 0.00 in - - ()
Sea Level Pressure  
Sea Level Pressure 30.29 in    
Wind  
Wind Speed 4 mph (ENE)    
Max Wind Speed 16 mph    
Max Gust Speed 23 mph    
Visibility 3 miles    
Events Snow    
Averages and records for this station are not official NWS values.
T = Trace of Precipitation, MM = Missing Value Source: NWS Daily Summary

Daily Weather History Graph

Daily Weather History Graph

Search for Another Location

Airport:

Trip Planner

Search our weather history database for the weather conditions in past years. The results will help you decide how hot, cold, wet, or windy it might be!

Date:

Astronomy

Feb. 04, 2014 Rise Set
Actual Time 7:51 AM EST 6:02 PM EST
Civil Twilight 7:22 AM EST 6:32 PM EST
Nautical Twilight 6:49 AM EST 7:05 PM EST
Astronomical Twilight 6:17 AM EST 7:37 PM EST
Moon 10:24 AM EST (2/4) No Moon Set
Length of Visible Light 11h 09m
Length of Day
10h 11m
Waxing Crescent, 29% of the Moon is Illuminated
Feb 4
Waxing Crescent
Feb 6
First Quarter
Feb 14
Full
Feb 22
Last Quarter
Mar 1
New

Hourly Weather History & Observations

Time (EST) Temp. Windchill Dew Point Humidity Pressure Visibility Wind Dir Wind Speed Gust Speed Precip Events Conditions
12:53 AM 1.9 °F - -2.0 °F 83% 30.41 in 4.0 mi Calm Calm - N/A   Clear
1:53 AM 1.9 °F - -2.9 °F 80% 30.41 in 4.0 mi Calm Calm - N/A   Haze
2:53 AM 3.0 °F - -2.0 °F 80% 30.42 in 4.0 mi Calm Calm - N/A   Haze
3:53 AM 3.0 °F -4.4 °F -2.9 °F 76% 30.42 in 4.0 mi South 3.5 mph - N/A   Haze
4:53 AM 3.0 °F - -2.9 °F 76% 30.44 in 4.0 mi Calm Calm - N/A   Haze
5:53 AM 3.0 °F - -2.0 °F 80% 30.45 in 4.0 mi Calm Calm - N/A   Haze
6:53 AM 3.9 °F - -2.0 °F 76% 30.43 in 3.0 mi Calm Calm - N/A   Haze
7:53 AM 3.9 °F - -0.9 °F 80% 30.45 in 4.0 mi Calm Calm - N/A   Haze
8:11 AM 5.0 °F - -0.4 °F 78% 30.40 in 2.5 mi Calm Calm - N/A   Haze
8:53 AM 6.1 °F - 1.9 °F 83% 30.47 in 2.5 mi Calm Calm - N/A   Clear
9:34 AM 8.6 °F 2.0 °F 3.2 °F 79% 30.37 in 1.5 mi NNE 3.5 mph - N/A   Clear
9:53 AM 10.0 °F - 8.1 °F 92% 30.44 in 1.5 mi Calm Calm - N/A   Clear
10:34 AM 15.8 °F - 10.4 °F 79% 30.39 in 2.5 mi Calm Calm - N/A   Haze
10:53 AM 17.1 °F 11.7 °F 10.9 °F 77% 30.45 in 2.5 mi East 3.5 mph - N/A   Haze
11:14 AM 17.6 °F 10.7 °F 10.4 °F 73% 30.37 in 3.0 mi East 4.6 mph - N/A   Haze
11:53 AM 19.9 °F 12.1 °F 10.9 °F 68% 30.39 in 4.0 mi East 5.8 mph - N/A   Haze
12:53 PM 21.9 °F 15.7 °F 10.9 °F 63% 30.38 in 7.0 mi North 4.6 mph - N/A   Mostly Cloudy
1:53 PM 21.9 °F 14.5 °F 10.9 °F 63% 30.35 in 7.0 mi ENE 5.8 mph - N/A   Overcast
2:53 PM 23.0 °F 15.8 °F 10.9 °F 60% 30.33 in 8.0 mi ENE 5.8 mph - N/A   Overcast
3:53 PM 23.0 °F 15.8 °F 10.9 °F 60% 30.34 in 10.0 mi East 5.8 mph - N/A   Overcast
4:53 PM 23.0 °F 13.9 °F 10.0 °F 58% 30.30 in 10.0 mi ENE 8.1 mph - N/A   Overcast
5:53 PM 21.9 °F 17.2 °F 10.9 °F 63% 30.31 in 8.0 mi East 3.5 mph - N/A   Overcast
6:53 PM 21.9 °F 11.0 °F 10.0 °F 60% 30.26 in 3.0 mi East 10.4 mph - 0.00 in Snow Light Snow
6:56 PM 21.2 °F 8.3 °F 12.2 °F 68% 30.21 in 2.5 mi East 13.8 mph - 0.00 in Snow Light Snow
7:07 PM 19.4 °F 6.0 °F 12.2 °F 74% 30.21 in 1.0 mi East 13.8 mph - 0.00 in Snow Light Snow
7:17 PM 19.4 °F 7.9 °F 14.0 °F 80% 30.21 in 0.8 mi East 10.4 mph - 0.00 in Snow Light Snow
7:30 PM 19.4 °F 8.6 °F 15.8 °F 86% 30.21 in 1.2 mi ENE 9.2 mph - 0.00 in Snow Light Snow
7:53 PM 19.9 °F 9.3 °F 15.1 °F 81% 30.25 in 2.0 mi NE 9.2 mph - 0.00 in Snow Light Snow
8:12 PM 19.4 °F 9.5 °F 15.8 °F 86% 30.19 in 3.0 mi ENE 8.1 mph - 0.00 in Snow Light Snow
8:25 PM 19.4 °F 7.2 °F 15.8 °F 86% 30.16 in 1.8 mi ENE 11.5 mph - 0.00 in Snow Light Snow
8:36 PM 19.4 °F 6.6 °F 15.8 °F 86% 30.16 in 0.5 mi ENE 12.7 mph - 0.00 in Snow Snow
8:45 PM 19.4 °F 6.0 °F 15.8 °F 86% 30.14 in 0.8 mi NE 13.8 mph - 0.00 in Snow Light Snow
8:53 PM 19.9 °F 7.3 °F 16.0 °F 85% 30.19 in 0.8 mi NE 12.7 mph - 0.00 in Snow Light Snow
9:01 PM 19.4 °F 5.5 °F 15.8 °F 86% 30.14 in 1.0 mi NNE 15.0 mph - 0.00 in Snow Light Snow
9:32 PM 19.4 °F 6.0 °F 15.8 °F 86% 30.12 in 1.5 mi NE 13.8 mph - 0.00 in Snow Light Snow
9:53 PM 19.9 °F 5.7 °F 16.0 °F 85% 30.17 in 2.5 mi NE 16.1 mph - 0.00 in Snow Light Snow
10:15 PM 19.4 °F 5.5 °F 15.8 °F 86% 30.09 in 1.8 mi ENE 15.0 mph - 0.00 in Snow Light Snow
10:53 PM 19.9 °F 7.3 °F 16.0 °F 85% 30.10 in 1.5 mi ENE 12.7 mph 23.0 mph 0.00 in Snow Light Snow
11:13 PM 21.2 °F 8.9 °F 15.8 °F 80% 30.07 in 2.5 mi ENE 12.7 mph - 0.00 in Snow Light Snow
11:37 PM 19.4 °F 7.2 °F 15.8 °F 86% 30.05 in 1.2 mi ENE 11.5 mph - 0.00 in Snow Light Snow
11:53 PM 19.9 °F 7.9 °F 16.0 °F 85% 30.09 in 1.0 mi ENE 11.5 mph - 0.00 in Snow Light Snow